Weather Roundup
Issued by NWS Chicago, IL

Home | Current Version | Previous Version | Text Only | Print | Product List | Glossary Off
Versions: 1 2 3 4 5 6 7 8 9 10 11 12 13 14 15 16 17 18 19 20 21 22 23 24 25 26 27 28 29 30 31 32 33 34 35 36 37 38 39 40 41 42 43 44 45 46 47 48 49 50

000
NZUS59 KLOT 072012
HRRLOT

CHICAGO AREA WEATHER ROUNDUP
NATIONAL WEATHER SERVICE CHICAGO/ROMEOVILLE IL
200 PM CST WED DEC 07 2016

NOTE: "FAIR" INDICATES FEW OR NO CLOUDS BELOW 12,000 FEET WITH NO
SIGNIFICANT WEATHER AND/OR OBSTRUCTIONS TO VISIBILITY.

* THESE STATIONS ARE NOT UNDER NWS QUALITY CONTROL. THEY ALSO MAY NOT
  REPORT WEATHER SUCH AS PRECIPITATION OR FOG.

ILZ005-006-012>014-019>023-072100-
NORTHEAST ILLINOIS

CITY           SKY/WX    TMP DP  RH WIND       PRES   REMARKS
OHARE          PTSUNNY   26  18  71 SW18      30.07S WCI  13
MIDWAY         CLOUDY    29  17  61 W15       30.08F WCI  18
AURORA         MOSUNNY   26  19  74 W18       30.10S WCI  13
LANSING*       MOSUNNY   29  23  77 SW15      30.10S WCI  18
JOLIET*        CLOUDY    29  22  74 W10G18    30.12R WCI  20
WAUKEGAN       MOSUNNY   28  19  69 W8        30.02F WCI  20
DUPAGE AIRPORT CLOUDY    25  16  68 W18       30.08F WCI  11
WHEELING       MOSUNNY   27  17  66 W10G17    30.07F WCI  17
KANKAKEE*      MOSUNNY   31  23  73 W12       30.13S WCI  21
MORRIS*        CLOUDY    28  22  76 W14       30.12R WCI  17
LEWIS AIRPORT* MOSUNNY   26  23  86 W16       30.11R WCI  14
NORTHERLY ISL    N/A     30  18  60 SW10        N/A  WCI  21
$$

WIZ051-052-058>065-066-070>072-072100-
SOUTHEAST WISCONSIN

CITY           SKY/WX    TMP DP  RH WIND       PRES   REMARKS
MILWAUKEE      PTSUNNY   28  16  60 W13G20    30.01R WCI  17
KENOSHA*       PTSUNNY   27  18  69 SW18      30.02F WCI  14
RACINE*        CLOUDY    28  17  63 W15G22    30.03S WCI  16
BURLINGTON     CLOUDY    26  18  72 W15G21    30.03F WCI  13
WAUKESHA       MOSUNNY   23  14  68 W15       30.01S WCI  10
$$

INZ001>003-010>013-019-020-072100-
NORTHWEST INDIANA

CITY           SKY/WX    TMP DP  RH WIND       PRES   REMARKS
GARY*          NOT AVBL
MICHIGAN CITY* NOT AVBL
RENSSELAER*    NOT AVBL
VALPARAISO     CLOUDY    31  21  66 W17       30.09R WCI  19
$$

LMZ740>746-072100-
SOUTHERN LAKE MICHIGAN

STATION/POSITION TIME  SKY/WX   TEMP WIND        PRES    VSBY
                                AIR  DIR/SP/G
                 (UTC)          (F)  (DEG/KT/KT) (MB)    (MI)
HARRISON CRIB    1940            30  260/ 18/ 20   N/A
BURNHAM HARBOR   2000            29  240/  7/ 15   N/A
CALUMET HARBOR   1942            29  220/  7/ 11 1017.7F
BURNS HARBOR     1940            32  240/ 17/ 19 1019.3R
MICHIGAN CITY    1940            30  220/ 17/ 21   N/A
$$

ABBREVIATIONS USED IN REMARKS
   TC - TEMPERATURE IN CELSIUS
  WCI - WIND CHILL INDEX
   HX - HEAT INDEX
  VSB - VISIBILITY
$$




USA.gov is the U.S. government's official web portal to all federal, state and local government web resources and services.